Location: Mapua
(41.2500°S, 173.1000°E)
Time: 19:46:39
(UTC+12:00)

Hubble Space Telescope - Visible Passes

Search period start: 17 August 2017 00:00
Search period end: 27 August 2017 00:00
Orbit: 538 x 542 km, 28.5° (Epoch: 16 August)

Date Brightness Start Highest point End Pass type
(mag) Time Alt. Az. Time Alt. Az. Time Alt. Az.
17 Aug 3.3 19:17:18 10° NW 19:19:11 13° N 19:21:03 10° NNE visible
18 Aug 3.4 19:07:25 10° NNW 19:08:55 12° N 19:10:27 10° N visible
19 Aug 3.5 18:57:52 10° NNW 18:58:41 10° NNW 18:59:31 10° N visible
